This is the latest recevied weather packets stored in our database for station/object IQ1GE. If no packets are shown the sender has not sent any weather packets the latest 10 day(s).
| Time | Temp. | Humidity | Pressure | Rain* | Wind** | Luminosity | Snow |
|---|---|---|---|---|---|---|---|
| 1778236474 | 21.11° C | 60% | 1016 hPa | 0 mm | - | - | - |
| 1778235571 | 21.11° C | 59% | 1015.9 hPa | 0 mm | - | - | - |
| 1778235274 | 21.11° C | 59% | 1015.9 hPa | 0 mm | - | - | - |
| 1778234377 | 21.11° C | 60% | 1015.8 hPa | 0 mm | - | - | - |
| 1778231071 | 20.56° C | 61% | 1015.5 hPa | 0 mm | - | - | - |
| 1778230774 | 20.56° C | 61% | 1015.5 hPa | 0 mm | - | - | - |
| 1778230477 | 20.56° C | 61% | 1015.5 hPa | 0 mm | - | - | - |
| 1778229871 | 20.56° C | 60% | 1015.5 hPa | 0 mm | - | - | - |
| 1778229577 | 20.56° C | 59% | 1015.4 hPa | 0 mm | - | - | - |
| 1778228671 | 20.56° C | 60% | 1015.4 hPa | 0 mm | - | - | - |
| 1778227174 | 20° C | 61% | 1015.2 hPa | 0 mm | - | - | - |
| 1778226871 | 20° C | 62% | 1015.2 hPa | 0 mm | - | - | - |
| 1778225671 | 19.44° C | 63% | 1015.1 hPa | 0 mm | - | - | - |
| 1778225374 | 19.44° C | 62% | 1015 hPa | 0 mm | - | - | - |
| 1778224471 | 18.89° C | 64% | 1015 hPa | 0 mm | - | - | - |
| 1778224171 | 18.89° C | 65% | 1015 hPa | 0 mm | - | - | - |
| 1778222371 | 18.33° C | 64% | 1014.9 hPa | 0 mm | - | - | - |
| 1778221774 | 18.33° C | 65% | 1014.9 hPa | 0 mm | - | - | - |
| 1778221171 | 18.33° C | 66% | 1014.9 hPa | 0 mm | - | - | - |
| 1778220271 | 17.78° C | 66% | 1014.7 hPa | 0 mm | - | - | - |
| 1778218771 | 17.78° C | 66% | 1014.7 hPa | 0 mm | - | - | - |
| 1778217875 | 17.22° C | 67% | 1014.6 hPa | 0 mm | - | - | - |
| 1778216372 | 16.67° C | 68% | 1014.4 hPa | 0 mm | - | - | - |
| 1778215775 | 16.11° C | 68% | 1014.4 hPa | 0 mm | - | - | - |
| 1778213975 | 16.67° C | 65% | 1014 hPa | 0 mm | - | - | - |
* Rain latest hour (hover to see other rain measurements)
** Current wind speed in m/s (hover to see current wind gust speed)